Chon Buri, Thailand

5:36 AM ICT on February 24, 2017 (GMT +0700)
Bangkok (Suvarnabhumi)

Weather History for VTBS - January, 2014

Change the Weather History Date:

Monday, January 13, 2014

  Actual Average (VTBD) Record (VTBD)
Temperature  
Mean Temperature 80 °F -  
Max Temperature 90 °F 90 °F 93 °F (1997)
Min Temperature 71 °F 71 °F 62 °F (2009)
Cooling Degree Days 16    
Growing Degree Days 30 (Base 50)    
Moisture  
Dew Point 60 °F    
Average Humidity 50    
Maximum Humidity 69    
Minimum Humidity 32    
Precipitation  
Precipitation 0.00 in 0.02 in - ()
Sea Level Pressure  
Sea Level Pressure 29.95 in    
Wind  
Wind Speed 7 mph ()    
Max Wind Speed 16 mph    
Max Gust Speed -    
Visibility 5.8 miles    
Events      
Averages and records for this station are not official NWS values.
T = Trace of Precipitation, MM = Missing Value Source: Averaged Metar Reports

Daily Weather History Graph

Daily Weather History Graph

Search for Another Location

Airport or City:

Trip Planner

Search our weather history database for the weather conditions in past years. The results will help you decide how hot, cold, wet, or windy it might be!

Date:

Astronomy

Jan. 13, 2014 Rise Set
Actual Time 6:42 AM ICT 6:07 PM ICT
Civil Twilight 6:19 AM ICT 6:29 PM ICT
Nautical Twilight 5:53 AM ICT 6:56 PM ICT
Astronomical Twilight 5:27 AM ICT 7:22 PM ICT
Moon 3:53 PM ICT (1/13) 4:08 AM ICT (1/13)
Length of Visible Light 12h 10m
Length of Day
11h 24m
Waxing Gibbous, 92% of the Moon is Illuminated
Jan 13
Waxing Gibbous
Jan 16
Full
Jan 24
Last Quarter
Jan 31
New
Feb 7
First Quarter

Hourly Weather History & Observations

Time (ICT) Temp. Heat Index Dew Point Humidity Pressure Visibility Wind Dir Wind Speed Gust Speed Precip Events Conditions
12:00 AM 77.0 °F - 60.8 °F 57% 29.98 in - East 4.6 mph - N/A   Clear
12:30 AM 78.8 °F - 62.6 °F 57% 29.98 in - ENE 5.8 mph - N/A   Clear
1:00 AM 83 °F - 62 °F 38% 29.93 in 4 mi Calm Calm - -   Haze
1:00 AM 80.6 °F 81.5 °F 60.8 °F 51% 29.98 in - NE 8.1 mph - N/A   Clear
1:30 AM 80.6 °F 81.1 °F 59.0 °F 48% 29.95 in - ENE 8.1 mph - N/A   Clear
2:00 AM 75.2 °F - 60.8 °F 61% 29.95 in - North 5.8 mph - N/A   Clear
2:30 AM 75.2 °F - 60.8 °F 61% 29.95 in - North 5.8 mph - N/A   Clear
3:00 AM 73.4 °F - 62.6 °F 69% 29.95 in - NE 6.9 mph - N/A   Clear
3:30 AM 71.6 °F - 60.8 °F 69% 29.95 in - NE 8.1 mph - N/A   Clear
4:00 AM 75 °F - 64 °F 60% 29.93 in 4 mi Calm Calm - -   Mist
4:00 AM 71.6 °F - 60.8 °F 69% 29.95 in - NE 6.9 mph - N/A   Clear
4:30 AM 73.4 °F - 62.6 °F 69% 29.95 in - NE 9.2 mph - N/A   Clear
5:00 AM 73.4 °F - 60.8 °F 65% 29.95 in - ENE 6.9 mph - N/A   Clear
5:30 AM 73.4 °F - 60.8 °F 65% 29.95 in - ENE 6.9 mph - N/A   Clear
6:00 AM 73.4 °F - 60.8 °F 65% 29.95 in - East 5.8 mph - N/A   Clear
6:30 AM 73.4 °F - 60.8 °F 65% 29.98 in - ENE 4.6 mph - N/A   Clear
7:00 AM 73 °F - 65 °F 69% 29.96 in 4 mi NNE 6.9 mph - -   Mist
7:00 AM 71.6 °F - 60.8 °F 69% 29.98 in - ENE 5.8 mph - N/A   Clear
7:30 AM 73.4 °F - 60.8 °F 65% 29.98 in - ENE 8.1 mph - N/A   Clear
8:00 AM 73.4 °F - 60.8 °F 65% 30.01 in - ENE 6.9 mph - N/A   Clear
8:30 AM 75.2 °F - 59.0 °F 57% 30.01 in - ENE 10.4 mph - N/A   Clear
9:00 AM 77.0 °F - 59.0 °F 54% 30.04 in - ENE 9.2 mph - N/A   Clear
9:30 AM 78.8 °F - 60.8 °F 54% 30.04 in - ENE 11.5 mph - N/A   Clear
10:00 AM 81 °F - 61 °F 41% 30.00 in 5 mi ENE 9.2 mph - -   Haze
10:00 AM 78.8 °F - 59.0 °F 51% 30.04 in - ENE 15.0 mph - N/A   Clear
10:30 AM 80.6 °F 81.1 °F 59.0 °F 48% 30.04 in 6.2 mi East 16.1 mph - N/A   Scattered Clouds
11:00 AM 80.6 °F 81.1 °F 59.0 °F 48% 30.04 in 6.2 mi ENE 16.1 mph - N/A   Scattered Clouds
11:30 AM 82.4 °F 82.0 °F 57.2 °F 42% 30.01 in 6.2 mi East 15.0 mph - N/A   Scattered Clouds
12:00 PM 84.2 °F 83.8 °F 59.0 °F 42% 30.01 in 6.2 mi ENE 16.1 mph - N/A   Scattered Clouds
12:30 PM 82.4 °F 82.0 °F 57.2 °F 42% 29.98 in 6.2 mi ENE 16.1 mph - N/A   Scattered Clouds
1:00 PM 87 °F - 63 °F 34% 29.93 in 5 mi NE 4.6 mph - -   Haze
1:00 PM 84.2 °F 84.4 °F 60.8 °F 45% 29.95 in 6.2 mi East 12.7 mph - N/A   Scattered Clouds
1:30 PM 86.0 °F 84.9 °F 57.2 °F 37% 29.92 in 6.2 mi ENE 16.1 mph - N/A   Scattered Clouds
2:00 PM 86.0 °F 85.4 °F 59.0 °F 40% 29.92 in 6.2 mi ENE 13.8 mph - N/A   Scattered Clouds
2:30 PM 86.0 °F 84.9 °F 57.2 °F 37% 29.89 in 6.2 mi ENE 12.7 mph - N/A   Scattered Clouds
3:00 PM 86.0 °F 85.4 °F 59.0 °F 40% 29.89 in 6.2 mi ENE 10.4 mph - N/A   Scattered Clouds
3:30 PM 86.0 °F 84.9 °F 57.2 °F 37% 29.89 in 6.2 mi NE 9.2 mph - N/A   Scattered Clouds
4:00 PM 89 °F - 63 °F 32% 29.86 in 5 mi NE 4.6 mph - -   Haze
4:00 PM 86.0 °F 84.9 °F 57.2 °F 37% 29.89 in 6.2 mi ENE 10.4 mph - N/A   Scattered Clouds
4:30 PM 86.0 °F 84.9 °F 57.2 °F 37% 29.89 in 6.2 mi East 9.2 mph - N/A   Scattered Clouds
5:00 PM 84.2 °F 83.5 °F 57.2 °F 40% 29.89 in 6.2 mi NE 10.4 mph - N/A   Scattered Clouds
5:30 PM 84.2 °F 83.8 °F 59.0 °F 42% 29.89 in 6.2 mi East 8.1 mph - N/A   Scattered Clouds
6:00 PM 84.2 °F 83.8 °F 59.0 °F 42% 29.89 in 6.2 mi East 8.1 mph - N/A   Scattered Clouds
6:30 PM 82.4 °F 82.5 °F 59.0 °F 45% 29.89 in 6.2 mi ENE 8.1 mph - N/A   Mostly Cloudy
7:00 PM 83 °F - 63 °F 40% 29.90 in 5 mi ENE 3.5 mph - -   Haze
7:00 PM 82.4 °F 82.5 °F 59.0 °F 45% 29.92 in 6.2 mi ENE 6.9 mph - N/A   Mostly Cloudy
7:30 PM 82.4 °F 82.5 °F 59.0 °F 45% 29.92 in 6.2 mi ENE 5.8 mph - N/A   Mostly Cloudy
8:00 PM 82.4 °F 82.5 °F 59.0 °F 45% 29.92 in 6.2 mi ENE 6.9 mph - N/A   Mostly Cloudy
8:30 PM 82.4 °F 82.5 °F 59.0 °F 45% 29.95 in 6.2 mi ENE 9.2 mph - N/A   Mostly Cloudy
9:00 PM 82.4 °F 82.0 °F 57.2 °F 42% 29.95 in 6.2 mi ENE 11.5 mph - N/A   Mostly Cloudy
9:30 PM 80.6 °F 80.8 °F 57.2 °F 45% 29.95 in 6.2 mi NE 12.7 mph - N/A   Mostly Cloudy
10:00 PM 79 °F - 64 °F 50% 29.94 in 5 mi NNE 4.6 mph - -   Haze
10:00 PM 80.6 °F 80.8 °F 57.2 °F 45% 29.95 in 6.2 mi NE 11.5 mph - N/A   Mostly Cloudy
10:30 PM 80.6 °F 80.8 °F 57.2 °F 45% 29.95 in 6.2 mi NE 12.7 mph - N/A   Mostly Cloudy
11:00 PM 78.8 °F - 57.2 °F 47% 29.95 in 6.2 mi NE 10.4 mph - N/A   Mostly Cloudy
11:30 PM 78.8 °F - 57.2 °F 47% 29.95 in 6.2 mi NE 11.5 mph - N/A   Mostly Cloudy